| time (UTC) | temp F | wind direction | speed knots | gust knots | rain 1hr in | rain 24hr in | rain mn in | humidity % | barometer mb |
| 20260906064306 | 81 | 257 | 0.0 | 2.6 | 0.00 | 0.00 | 0.00 | 81 | 1009.0 |
| 20260906063805 | 81 | 124 | 1.7 | 1.7 | 0.00 | 0.00 | 0.00 | 80 | 1009.0 |
| 20260906063305 | 81 | 115 | 0.9 | 2.6 | 0.00 | 0.00 | 0.00 | 81 | 1009.0 |
| 20260906062805 | 82 | 119 | 1.7 | 2.6 | 0.00 | 0.00 | 0.00 | 81 | 1009.0 |
| 20260906062306 | 82 | 183 | 0.9 | 3.5 | 0.00 | 0.00 | 0.00 | 79 | 1009.0 |
| 20260906061806 | 82 | 246 | 1.7 | 3.5 | 0.00 | 0.00 | 0.00 | 80 | 1009.0 |
| 20260906061305 | 82 | 255 | 2.6 | 3.5 | 0.00 | 0.00 | 0.00 | 80 | 1009.0 |
| 20260906060805 | 83 | 268 | 2.6 | 3.5 | 0.00 | 0.00 | 0.00 | 78 | 1008.7 |
| 20260906060306 | 82 | 284 | 3.5 | 3.5 | 0.00 | 0.00 | 0.00 | 80 | 1008.3 |
| 20260906055806 | 80 | 279 | 3.5 | 4.3 | 0.00 | 0.00 | 0.00 | 84 | 1009.0 |
| 20260906055306 | 80 | 260 | 2.6 | 5.2 | 0.00 | 0.00 | 0.00 | 85 | 1008.7 |
| 20260906054805 | 80 | 266 | 2.6 | 6.1 | 0.00 | 0.00 | 0.00 | 86 | 1008.7 |
| 20260906054305 | 81 | 242 | 4.3 | 6.1 | 0.00 | 0.00 | 0.00 | 83 | 1008.7 |
| 20260906053805 | 82 | 232 | 1.7 | 5.2 | 0.00 | 0.00 | 0.00 | 80 | 1008.7 |
| 20260906053306 | 82 | 210 | 2.6 | 5.2 | 0.00 | 0.00 | 0.00 | 78 | 1008.7 |
| 20260906052805 | 83 | 202 | 0.9 | 3.5 | 0.00 | 0.00 | 0.00 | 75 | 1008.7 |
| 20260906052306 | 84 | 98 | 0.9 | 3.5 | 0.00 | 0.00 | 0.00 | 73 | 1008.7 |
| 20260906051806 | 84 | 66 | 3.5 | 3.5 | 0.00 | 0.00 | 0.00 | 73 | 1008.7 |
| 20260906051305 | 84 | 80 | 1.7 | 2.6 | 0.00 | 0.00 | 0.00 | 74 | 1009.0 |
| 20260906050806 | 84 | 57 | 1.7 | 3.5 | 0.00 | 0.00 | 0.00 | 73 | 1009.0 |
| 20260906050305 | 84 | 71 | 2.6 | 3.5 | 0.00 | 0.00 | 0.00 | 74 | 1009.0 |
| 20260906045806 | 84 | 55 | 2.6 | 3.5 | 0.00 | 0.00 | 0.00 | 73 | 1009.4 |
| 20260906045306 | 85 | 53 | 1.7 | 3.5 | 0.00 | 0.00 | 0.00 | 71 | 1009.0 |
| 20260906044805 | 85 | 33 | 3.5 | 4.3 | 0.00 | 0.00 | 0.00 | 70 | 1009.0 |
| 20260906044305 | 86 | 104 | 0.9 | 4.3 | 0.00 | 0.00 | 0.00 | 68 | 1009.4 |
| 20260906043805 | 85 | 106 | 3.5 | 4.3 | 0.00 | 0.00 | 0.00 | 70 | 1009.4 |
| 20260906043306 | 85 | 97 | 3.5 | 3.5 | 0.00 | 0.00 | 0.00 | 70 | 1009.4 |
| 20260906042806 | 85 | 102 | 2.6 | 5.2 | 0.00 | 0.00 | 0.00 | 71 | 1009.4 |
| 20260906042306 | 85 | 127 | 2.6 | 6.1 | 0.00 | 0.00 | 0.00 | 72 | 1009.4 |
| 20260906041805 | 85 | 114 | 4.3 | 7.8 | 0.00 | 0.00 | 0.00 | 73 | 1009.0 |
| 20260906041305 | 85 | 102 | 3.5 | 7.8 | 0.00 | 0.00 | 0.00 | 72 | 1009.4 |
| 20260906040806 | 85 | 104 | 7.0 | 7.8 | 0.00 | 0.00 | 0.00 | 72 | 1009.4 |
| 20260906040305 | 85 | 117 | 4.3 | 6.1 | 0.00 | 0.00 | 0.00 | 72 | 1009.0 |
| 20260906035806 | 85 | 126 | 4.3 | 4.3 | 0.00 | 0.00 | 0.00 | 71 | 1009.0 |
| 20260906035306 | 85 | 123 | 3.5 | 4.3 | 0.00 | 0.00 | 0.00 | 72 | 1009.0 |
| 20260906034805 | 85 | 132 | 2.6 | 4.3 | 0.00 | 0.00 | 0.00 | 72 | 1009.0 |
| 20260906034305 | 84 | 122 | 3.5 | 3.5 | 0.00 | 0.00 | 0.00 | 72 | 1009.0 |
| 20260906033805 | 85 | 141 | 1.7 | 2.6 | 0.00 | 0.00 | 0.00 | 72 | 1009.0 |
| 20260906033306 | 85 | 140 | 1.7 | 2.6 | 0.00 | 0.00 | 0.00 | 71 | 1009.0 |
| 20260906032805 | 85 | 60 | 1.7 | 2.6 | 0.00 | 0.00 | 0.00 | 70 | 1009.0 |
| 20260906032306 | 86 | 157 | 0.0 | 2.6 | 0.00 | 0.00 | 0.00 | 69 | 1009.4 |
| 20260906031805 | 86 | 315 | 0.9 | 3.5 | 0.00 | 0.00 | 0.00 | 69 | 1009.0 |
| 20260906031305 | 86 | 308 | 1.7 | 3.5 | 0.00 | 0.00 | 0.00 | 67 | 1009.0 |
| 20260906030805 | 87 | 320 | 1.7 | 2.6 | 0.00 | 0.00 | 0.00 | 65 | 1009.0 |
| 20260906030305 | 88 | 331 | 0.0 | 1.7 | 0.00 | 0.00 | 0.00 | 63 | 1008.7 |
| 20260906025805 | 88 | 349 | 0.0 | 1.7 | 0.00 | 0.00 | 0.00 | 63 | 1009.0 |
| 20260906025306 | 89 | 77 | 0.0 | 2.6 | 0.00 | 0.00 | 0.00 | 62 | 1008.7 |
| 20260906024805 | 89 | 132 | 0.9 | 3.5 | 0.00 | 0.00 | 0.00 | 61 | 1008.7 |
| 20260906024305 | 90 | 43 | 1.7 | 4.3 | 0.00 | 0.00 | 0.00 | 59 | 1008.7 |
| 20260906023805 | 90 | 50 | 3.5 | 4.3 | 0.00 | 0.00 | 0.00 | 57 | 1008.7 |
| 20260906023305 | 90 | 41 | 4.3 | 5.2 | 0.00 | 0.00 | 0.00 | 57 | 1008.3 |
| 20260906022806 | 90 | 35 | 4.3 | 5.2 | 0.00 | 0.00 | 0.00 | 57 | 1008.7 |
| 20260906022307 | 90 | 38 | 4.3 | 5.2 | 0.00 | 0.00 | 0.00 | 57 | 1008.3 |
| 20260906021805 | 90 | 36 | 4.3 | 5.2 | 0.00 | 0.00 | 0.00 | 57 | 1008.3 |
| 20260906021305 | 90 | 39 | 4.3 | 4.3 | 0.00 | 0.00 | 0.00 | 57 | 1008.3 |
| 20260906020805 | 90 | 45 | 4.3 | 4.3 | 0.00 | 0.00 | 0.00 | 59 | 1008.3 |
| 20260906020305 | 90 | 62 | 2.6 | 4.3 | 0.00 | 0.00 | 0.00 | 59 | 1008.0 |
| 20260906015806 | 90 | 59 | 2.6 | 4.3 | 0.00 | 0.00 | 0.00 | 58 | 1008.0 |
| 20260906015306 | 91 | 42 | 3.5 | 4.3 | 0.00 | 0.00 | 0.00 | 55 | 1008.0 |
| 20260906014805 | 91 | 44 | 3.5 | 4.3 | 0.00 | 0.00 | 0.00 | 55 | 1008.0 |
| 20260906014304 | 91 | 47 | 3.5 | 3.5 | 0.00 | 0.00 | 0.00 | 55 | 1008.0 |
| 20260906013805 | 91 | 53 | 2.6 | 3.5 | 0.00 | 0.00 | 0.00 | 55 | 1008.0 |
| 20260906013306 | 91 | 55 | 2.6 | 3.5 | 0.00 | 0.00 | 0.00 | 55 | 1008.0 |
| 20260906012805 | 91 | 47 | 1.7 | 3.5 | 0.00 | 0.00 | 0.00 | 56 | 1008.0 |
| 20260906012306 | 92 | 51 | 2.6 | 3.5 | 0.00 | 0.00 | 0.00 | 55 | 1008.3 |
| 20260906011805 | 92 | 68 | 2.6 | 3.5 | 0.00 | 0.00 | 0.00 | 55 | 1008.0 |
| 20260906011305 | 92 | 84 | 2.6 | 4.3 | 0.00 | 0.00 | 0.00 | 55 | 1008.0 |
| 20260906010805 | 92 | 86 | 3.5 | 4.3 | 0.00 | 0.00 | 0.00 | 55 | 1007.6 |
| 20260906010305 | 92 | 68 | 3.5 | 4.3 | 0.00 | 0.00 | 0.00 | 55 | 1008.0 |
| 20260906005805 | 92 | 66 | 3.5 | 3.5 | 0.00 | 0.00 | 0.00 | 54 | 1008.0 |
| 20260906005306 | 92 | 69 | 2.6 | 4.3 | 0.00 | 0.00 | 0.00 | 53 | 1007.6 |
| 20260906004805 | 92 | 62 | 2.6 | 4.3 | 0.00 | 0.00 | 0.00 | 54 | 1007.6 |
| 20260906004306 | 92 | 62 | 3.5 | 4.3 | 0.00 | 0.00 | 0.00 | 52 | 1007.3 |
| 20260906003804 | 92 | 40 | 3.5 | 3.5 | 0.00 | 0.00 | 0.00 | 53 | 1007.6 |
| 20260906003305 | 93 | 42 | 1.7 | 3.5 | 0.00 | 0.00 | 0.00 | 54 | 1007.3 |
| 20260906002805 | 93 | 41 | 2.6 | 3.5 | 0.00 | 0.00 | 0.00 | 53 | 1007.3 |
| 20260906002306 | 93 | 47 | 3.5 | 3.5 | 0.00 | 0.00 | 0.00 | 52 | 1007.6 |
| 20260906001805 | 93 | 58 | 2.6 | 3.5 | 0.00 | 0.00 | 0.00 | 52 | 1007.6 |
| 20260906001306 | 93 | 48 | 2.6 | 4.3 | 0.00 | 0.00 | 0.00 | 52 | 1007.6 |
| 20260906000805 | 93 | 37 | 3.5 | 3.5 | 0.00 | 0.00 | 0.00 | 51 | 1007.3 |
| 20260906000304 | 94 | 64 | 2.6 | 4.3 | 0.00 | 0.00 | 0.00 | 51 | 1007.6 |
| 20260905235805 | 94 | 68 | 1.7 | 4.3 | 0.00 | 0.00 | 0.00 | 50 | 1007.6 |
| 20260905235306 | 94 | 36 | 3.5 | 4.3 | 0.00 | 0.00 | 0.00 | 50 | 1007.6 |
| 20260905234805 | 94 | 38 | 3.5 | 7.0 | 0.00 | 0.00 | 0.00 | 50 | 1008.0 |
| 20260905234306 | 94 | 106 | 2.6 | 7.0 | 0.00 | 0.00 | 0.00 | 50 | 1007.6 |
| 20260905233805 | 95 | 71 | 2.6 | 6.1 | 0.00 | 0.00 | 0.00 | 49 | 1007.6 |
| 20260905233305 | 94 | 42 | 2.6 | 7.8 | 0.00 | 0.00 | 0.00 | 49 | 1008.0 |
| 20260905232805 | 95 | 42 | 3.5 | 7.8 | 0.00 | 0.00 | 0.00 | 49 | 1008.0 |
| 20260905232306 | 95 | 114 | 4.3 | 6.1 | 0.00 | 0.00 | 0.00 | 48 | 1008.0 |
| 20260905231805 | 95 | 88 | 5.2 | 7.8 | 0.00 | 0.00 | 0.00 | 48 | 1007.6 |
| 20260905231306 | 95 | 60 | 4.3 | 7.8 | 0.00 | 0.00 | 0.00 | 48 | 1007.6 |
| 20260905230805 | 95 | 30 | 6.1 | 8.7 | 0.00 | 0.00 | 0.00 | 48 | 1007.6 |
| 20260905230305 | 95 | 51 | 2.6 | 9.6 | 0.00 | 0.00 | 0.00 | 48 | 1007.3 |
| 20260905225805 | 95 | 49 | 6.1 | 9.6 | 0.00 | 0.00 | 0.00 | 48 | 1007.3 |
| 20260905225306 | 95 | 65 | 3.5 | 7.0 | 0.00 | 0.00 | 0.00 | 48 | 1007.3 |
| 20260905224806 | 95 | 30 | 4.3 | 7.0 | 0.00 | 0.00 | 0.00 | 47 | 1007.3 |
| 20260905224305 | 95 | 112 | 2.6 | 7.8 | 0.00 | 0.00 | 0.00 | 47 | 1007.3 |
| 20260905223805 | 95 | 110 | 4.3 | 9.6 | 0.00 | 0.00 | 0.00 | 47 | 1007.3 |
| 20260905223305 | 96 | 48 | 6.1 | 9.6 | 0.00 | 0.00 | 0.00 | 46 | 1007.3 |
| 20260905222805 | 96 | 55 | 5.2 | 8.7 | 0.00 | 0.00 | 0.00 | 46 | 1007.3 |
| 20260905222306 | 95 | 180 | 0.0 | 8.7 | 0.00 | 0.00 | 0.00 | 47 | 1007.6 |
| 20260905221805 | 96 | 69 | 2.6 | 6.1 | 0.00 | 0.00 | 0.00 | 47 | 1007.3 |
| 20260905221305 | 97 | 26 | 0.0 | 5.2 | 0.00 | 0.00 | 0.00 | 46 | 1007.3 |
| 20260905220804 | 98 | 97 | 1.7 | 4.3 | 0.00 | 0.00 | 0.00 | 45 | 1007.6 |
| 20260905220305 | 98 | 47 | 1.7 | 4.3 | 0.00 | 0.00 | 0.00 | 44 | 1007.6 |
| 20260905215805 | 98 | 249 | 0.0 | 4.3 | 0.00 | 0.00 | 0.00 | 44 | 1007.6 |
| 20260905215306 | 97 | 276 | 2.6 | 4.3 | 0.00 | 0.00 | 0.00 | 45 | 1007.3 |
| 20260905214805 | 96 | 97 | 0.9 | 2.6 | 0.00 | 0.00 | 0.00 | 45 | 1008.0 |
| 20260905214305 | 97 | 60 | 0.9 | 1.7 | 0.00 | 0.00 | 0.00 | 45 | 1007.6 |
| 20260905213805 | 96 | 244 | 0.0 | 3.5 | 0.00 | 0.00 | 0.00 | 46 | 1007.6 |
| 20260905213305 | 95 | 154 | 0.9 | 5.2 | 0.00 | 0.00 | 0.00 | 47 | 1008.0 |
| 20260905212805 | 95 | 77 | 1.7 | 5.2 | 0.00 | 0.00 | 0.00 | 46 | 1008.0 |
| 20260905212306 | 95 | 100 | 5.2 | 7.8 | 0.00 | 0.00 | 0.00 | 47 | 1008.0 |
| 20260905211805 | 95 | 96 | 2.6 | 7.8 | 0.00 | 0.00 | 0.00 | 48 | 1008.0 |
| 20260905211305 | 95 | 141 | 3.5 | 8.7 | 0.00 | 0.00 | 0.00 | 48 | 1008.0 |
| 20260905210805 | 95 | 76 | 6.1 | 8.7 | 0.00 | 0.00 | 0.00 | 48 | 1007.6 |
| 20260905210305 | 95 | 119 | 6.1 | 7.8 | 0.00 | 0.00 | 0.00 | 48 | 1008.0 |
| 20260905205805 | 96 | 123 | 4.3 | 6.1 | 0.00 | 0.00 | 0.00 | 48 | 1008.3 |
| 20260905205306 | 95 | 145 | 4.3 | 6.1 | 0.00 | 0.00 | 0.00 | 49 | 1008.0 |
| 20260905204805 | 95 | 173 | 2.6 | 6.1 | 0.00 | 0.00 | 0.00 | 48 | 1008.0 |
| 20260905204305 | 95 | 125 | 1.7 | 6.1 | 0.00 | 0.00 | 0.00 | 49 | 1008.0 |
| 20260905203805 | 94 | 118 | 3.5 | 8.7 | 0.00 | 0.00 | 0.00 | 49 | 1008.3 |
| 20260905203305 | 95 | 112 | 3.5 | 8.7 | 0.00 | 0.00 | 0.00 | 49 | 1008.0 |
| 20260905202805 | 95 | 101 | 5.2 | 7.8 | 0.00 | 0.00 | 0.00 | 49 | 1008.0 |
| 20260905202306 | 95 | 73 | 2.6 | 8.7 | 0.00 | 0.00 | 0.00 | 49 | 1008.3 |
| 20260905201805 | 95 | 82 | 4.3 | 8.7 | 0.00 | 0.00 | 0.00 | 49 | 1008.3 |
| 20260905201305 | 95 | 71 | 2.6 | 8.7 | 0.00 | 0.00 | 0.00 | 48 | 1008.3 |
| 20260905200805 | 96 | 31 | 1.7 | 7.8 | 0.00 | 0.00 | 0.00 | 47 | 1008.3 |
| 20260905200305 | 95 | 3 | 3.5 | 7.8 | 0.00 | 0.00 | 0.00 | 48 | 1008.7 |
| 20260905195805 | 96 | 327 | 4.3 | 6.1 | 0.00 | 0.00 | 0.00 | 48 | 1008.7 |
| 20260905195306 | 95 | 70 | 4.3 | 7.8 | 0.00 | 0.00 | 0.00 | 49 | 1008.7 |
| 20260905194805 | 94 | 71 | 3.5 | 13.0 | 0.00 | 0.00 | 0.00 | 49 | 1008.7 |
| 20260905194304 | 95 | 95 | 4.3 | 13.0 | 0.00 | 0.00 | 0.00 | 48 | 1009.0 |
| 20260905193803 | 96 | 121 | 9.6 | 13.0 | 0.00 | 0.00 | 0.00 | 46 | 1009.0 |
| 20260905193303 | 96 | 182 | 2.6 | 6.1 | 0.00 | 0.00 | 0.00 | 46 | 1009.0 |
| 20260905192804 | 96 | 188 | 3.5 | 6.1 | 0.00 | 0.00 | 0.00 | 45 | 1009.4 |
| 20260905192306 | 95 | 159 | 2.6 | 9.6 | 0.00 | 0.00 | 0.00 | 46 | 1009.4 |
| 20260905191805 | 94 | 79 | 4.3 | 9.6 | 0.00 | 0.00 | 0.00 | 48 | 1009.4 |
| 20260905191304 | 95 | 83 | 7.0 | 7.0 | 0.00 | 0.00 | 0.00 | 48 | 1009.4 |
| 20260905190804 | 95 | 176 | 2.6 | 7.0 | 0.00 | 0.00 | 0.00 | 48 | 1009.7 |
| 20260905190304 | 95 | 28 | 3.5 | 7.8 | 0.00 | 0.00 | 0.00 | 47 | 1009.7 |
| 20260905185804 | 95 | 80 | 3.5 | 9.6 | 0.00 | 0.00 | 0.00 | 47 | 1009.7 |
| 20260905185306 | 95 | 119 | 2.6 | 9.6 | 0.00 | 0.00 | 0.00 | 47 | 1009.7 |
| 20260905184804 | 95 | 177 | 1.7 | 7.0 | 0.00 | 0.00 | 0.00 | 48 | 1009.7 |
| 20260905184305 | 95 | 238 | 1.7 | 7.0 | 0.00 | 0.00 | 0.00 | 48 | 1009.7 |
| 20260905183804 | 94 | 123 | 0.9 | 7.0 | 0.00 | 0.00 | 0.00 | 49 | 1009.7 |
| 20260905183304 | 93 | 46 | 0.0 | 7.8 | 0.00 | 0.00 | 0.00 | 52 | 1010.1 |
| 20260905182804 | 93 | 7 | 5.2 | 10.4 | 0.00 | 0.00 | 0.00 | 52 | 1010.4 |
| 20260905182306 | 93 | 5 | 6.1 | 10.4 | 0.00 | 0.00 | 0.00 | 53 | 1010.1 |
| 20260905181804 | 94 | 53 | 7.8 | 8.7 | 0.00 | 0.00 | 0.00 | 51 | 1010.1 |
| 20260905181304 | 93 | 189 | 1.7 | 7.8 | 0.00 | 0.00 | 0.00 | 53 | 1010.1 |
| 20260905180804 | 93 | 98 | 4.3 | 7.8 | 0.00 | 0.00 | 0.00 | 53 | 1010.1 |
| 20260905180304 | 92 | 75 | 3.5 | 9.6 | 0.00 | 0.00 | 0.00 | 53 | 1010.4 |
| 20260905175804 | 92 | 119 | 4.3 | 9.6 | 0.00 | 0.00 | 0.00 | 54 | 1010.1 |
| 20260905175306 | 94 | 95 | 2.6 | 7.8 | 0.00 | 0.00 | 0.00 | 52 | 1010.1 |
| 20260905174804 | 94 | 9 | 3.5 | 7.8 | 0.00 | 0.00 | 0.00 | 53 | 1010.1 |
| 20260905174304 | 93 | 315 | 1.7 | 5.2 | 0.00 | 0.00 | 0.00 | 54 | 1010.1 |
| 20260905173803 | 93 | 40 | 4.3 | 7.8 | 0.00 | 0.00 | 0.00 | 52 | 1010.1 |
| 20260905173304 | 93 | 134 | 3.5 | 7.8 | 0.00 | 0.00 | 0.00 | 53 | 1010.1 |
| 20260905172804 | 93 | 334 | 2.6 | 6.1 | 0.00 | 0.00 | 0.00 | 52 | 1010.1 |
| 20260905172305 | 92 | 280 | 0.9 | 8.7 | 0.00 | 0.00 | 0.00 | 54 | 1010.4 |
| 20260905171803 | 92 | 97 | 3.5 | 8.7 | 0.00 | 0.00 | 0.00 | 55 | 1010.4 |
| 20260905171304 | 93 | 110 | 6.1 | 8.7 | 0.00 | 0.00 | 0.00 | 54 | 1010.4 |
| 20260905170804 | 92 | 68 | 6.1 | 8.7 | 0.00 | 0.00 | 0.00 | 55 | 1010.4 |
| 20260905170304 | 91 | 88 | 4.3 | 6.1 | 0.00 | 0.00 | 0.00 | 57 | 1010.8 |
| 20260905165804 | 92 | 307 | 2.6 | 7.0 | 0.00 | 0.00 | 0.00 | 56 | 1010.4 |
| 20260905165306 | 92 | 39 | 4.3 | 7.0 | 0.00 | 0.00 | 0.00 | 56 | 1010.8 |
| 20260905164804 | 91 | 142 | 5.2 | 8.7 | 0.00 | 0.00 | 0.00 | 57 | 1010.8 |
| 20260905164304 | 91 | 103 | 4.3 | 8.7 | 0.00 | 0.00 | 0.00 | 58 | 1011.1 |
| 20260905163804 | 93 | 26 | 4.3 | 5.2 | 0.00 | 0.00 | 0.00 | 55 | 1010.8 |
| 20260905163304 | 91 | 243 | 0.9 | 7.0 | 0.00 | 0.00 | 0.00 | 58 | 1010.8 |
| 20260905162803 | 90 | 186 | 1.7 | 7.0 | 0.00 | 0.00 | 0.00 | 60 | 1010.8 |
| 20260905162306 | 91 | 68 | 3.5 | 6.1 | 0.00 | 0.00 | 0.00 | 59 | 1010.8 |
| 20260905161804 | 92 | 3.5 | 4.3 | 0.00 | 0.00 | 0.00 | 59 | 1010.8 | |
| 20260905161304 | 89 | 244 | 1.7 | 7.8 | 0.00 | 0.00 | 0.00 | 62 | 1011.1 |
| 20260905160804 | 89 | 58 | 3.5 | 7.8 | 0.00 | 0.00 | 0.00 | 63 | 1011.5 |
| 20260905160304 | 89 | 38 | 6.1 | 7.0 | 0.00 | 0.00 | 0.00 | 63 | 1011.1 |
| 20260905155804 | 89 | 73 | 2.6 | 5.2 | 0.00 | 0.00 | 0.00 | 62 | 1011.5 |
| 20260905155306 | 91 | 357 | 2.6 | 4.3 | 0.00 | 0.00 | 0.00 | 61 | 1011.5 |
| 20260905154803 | 89 | 195 | 0.9 | 4.3 | 0.00 | 0.00 | 0.00 | 63 | 1011.8 |
| 20260905154304 | 88 | 298 | 0.9 | 5.2 | 0.00 | 0.00 | 0.00 | 64 | 1011.5 |
| 20260905153804 | 87 | 7 | 1.7 | 5.2 | 0.00 | 0.00 | 0.00 | 65 | 1011.5 |
| 20260905153304 | 88 | 330 | 4.3 | 6.1 | 0.00 | 0.00 | 0.00 | 65 | 1011.5 |
| 20260905152804 | 87 | 337 | 4.3 | 6.1 | 0.00 | 0.00 | 0.00 | 65 | 1011.5 |
| 20260905152306 | 87 | 349 | 1.7 | 7.8 | 0.00 | 0.00 | 0.00 | 66 | 1011.5 |
| 20260905151804 | 87 | 26 | 4.3 | 7.8 | 0.00 | 0.00 | 0.00 | 67 | 1011.5 |
| 20260905151304 | 88 | 33 | 6.1 | 6.1 | 0.00 | 0.00 | 0.00 | 66 | 1011.5 |
| 20260905150803 | 87 | 337 | 3.5 | 5.2 | 0.00 | 0.00 | 0.00 | 68 | 1011.1 |
| 20260905150304 | 88 | 55 | 2.6 | 5.2 | 0.00 | 0.00 | 0.00 | 67 | 1011.1 |
| 20260905145804 | 89 | 349 | 1.7 | 4.3 | 0.00 | 0.00 | 0.00 | 66 | 1011.1 |
| 20260905145306 | 90 | 336 | 1.7 | 4.3 | 0.00 | 0.00 | 0.00 | 64 | 1011.1 |
| 20260905144803 | 90 | 203 | 1.7 | 2.6 | 0.00 | 0.00 | 0.00 | 65 | 1011.1 |
| 20260905144303 | 87 | 194 | 0.0 | 2.6 | 0.00 | 0.00 | 0.00 | 69 | 1011.1 |
| 20260905143805 | 86 | 224 | 1.7 | 3.5 | 0.00 | 0.00 | 0.00 | 72 | 1011.5 |
| 20260905143303 | 87 | 253 | 2.6 | 3.5 | 0.00 | 0.00 | 0.00 | 69 | 1011.5 |
| 20260905142804 | 88 | 207 | 1.7 | 2.6 | 0.00 | 0.00 | 0.00 | 68 | 1011.8 |
| 20260905142306 | 86 | 198 | 0.0 | 3.5 | 0.00 | 0.00 | 0.00 | 72 | 1011.5 |
| 20260905141804 | 86 | 252 | 0.9 | 3.5 | 0.00 | 0.00 | 0.00 | 72 | 1011.8 |
| 20260905141304 | 87 | 235 | 2.6 | 3.5 | 0.00 | 0.00 | 0.00 | 70 | 1011.5 |
| 20260905140805 | 87 | 278 | 0.0 | 3.5 | 0.00 | 0.00 | 0.00 | 70 | 1011.8 |
| 20260905140304 | 87 | 161 | 0.0 | 3.5 | 0.00 | 0.00 | 0.00 | 70 | 1011.8 |
| 20260905135803 | 88 | 136 | 2.6 | 3.5 | 0.00 | 0.00 | 0.00 | 66 | 1011.5 |
| 20260905135306 | 87 | 203 | 0.0 | 2.6 | 0.00 | 0.00 | 0.00 | 69 | 1011.8 |
| 20260905134803 | 86 | 160 | 0.9 | 2.6 | 0.00 | 0.00 | 0.00 | 69 | 1011.8 |
| 20260905134304 | 85 | 189 | 1.7 | 2.6 | 0.00 | 0.00 | 0.00 | 69 | 1011.8 |
| 20260905133804 | 85 | 147 | 1.7 | 2.6 | 0.00 | 0.00 | 0.00 | 68 | 1011.5 |
| 20260905133304 | 84 | 147 | 2.6 | 2.6 | 0.00 | 0.00 | 0.00 | 73 | 1011.8 |
| 20260905132804 | 83 | 103 | 1.7 | 2.6 | 0.00 | 0.00 | 0.00 | 76 | 1011.8 |
| 20260905132306 | 83 | 120 | 0.9 | 2.6 | 0.00 | 0.00 | 0.00 | 77 | 1011.8 |
| 20260905131803 | 82 | 136 | 1.7 | 2.6 | 0.00 | 0.00 | 0.00 | 78 | 1011.8 |
| 20260905131304 | 82 | 160 | 1.7 | 2.6 | 0.00 | 0.00 | 0.00 | 78 | 1011.8 |
| 20260905130803 | 81 | 186 | 0.9 | 3.5 | 0.00 | 0.00 | 0.00 | 80 | 1011.8 |
| 20260905130304 | 81 | 108 | 0.9 | 5.2 | 0.00 | 0.00 | 0.00 | 80 | 1011.8 |
| 20260905125803 | 79 | 230 | 2.6 | 5.2 | 0.00 | 0.00 | 0.00 | 84 | 1012.1 |
| 20260905125306 | 78 | 140 | 2.6 | 6.1 | 0.00 | 0.00 | 0.00 | 86 | 1012.1 |
| 20260905124804 | 78 | 98 | 2.6 | 6.1 | 0.00 | 0.00 | 0.00 | 86 | 1012.1 |
| 20260905124304 | 78 | 72 | 4.3 | 6.1 | 0.00 | 0.00 | 0.00 | 87 | 1012.1 |
| 20260905123803 | 77 | 183 | 1.7 | 6.1 | 0.00 | 0.00 | 0.00 | 89 | 1012.1 |
| 20260905123304 | 77 | 95 | 3.5 | 7.0 | 0.00 | 0.00 | 0.00 | 89 | 1011.8 |
| 20260905122804 | 77 | 81 | 3.5 | 7.0 | 0.00 | 0.00 | 0.00 | 89 | 1012.1 |
| 20260905122306 | 77 | 84 | 4.3 | 6.1 | 0.00 | 0.00 | 0.00 | 90 | 1011.8 |
| 20260905121803 | 77 | 89 | 4.3 | 6.1 | 0.00 | 0.00 | 0.00 | 90 | 1011.8 |
| 20260905121304 | 77 | 99 | 3.5 | 5.2 | 0.00 | 0.00 | 0.00 | 90 | 1012.1 |
| 20260905120804 | 77 | 106 | 4.3 | 5.2 | 0.00 | 0.00 | 0.00 | 90 | 1011.8 |
| 20260905120303 | 77 | 112 | 3.5 | 4.3 | 0.00 | 0.00 | 0.00 | 90 | 1011.8 |
| 20260905115804 | 77 | 112 | 3.5 | 4.3 | 0.00 | 0.00 | 0.00 | 90 | 1011.8 |
| 20260905115306 | 76 | 115 | 3.5 | 4.3 | 0.00 | 0.00 | 0.00 | 91 | 1011.8 |
| 20260905114803 | 76 | 115 | 2.6 | 4.3 | 0.00 | 0.00 | 0.00 | 90 | 1011.8 |
| 20260905114304 | 76 | 111 | 3.5 | 5.2 | 0.00 | 0.00 | 0.00 | 91 | 1011.5 |
| 20260905113803 | 76 | 126 | 3.5 | 5.2 | 0.00 | 0.00 | 0.00 | 92 | 1011.5 |
| 20260905113303 | 75 | 92 | 4.3 | 5.2 | 0.00 | 0.00 | 0.00 | 92 | 1011.5 |
| 20260905112803 | 75 | 76 | 2.6 | 4.3 | 0.00 | 0.00 | 0.00 | 92 | 1011.1 |
| 20260905112305 | 75 | 103 | 1.7 | 4.3 | 0.00 | 0.00 | 0.00 | 92 | 1011.1 |
| 20260905111803 | 75 | 56 | 2.6 | 4.3 | 0.00 | 0.00 | 0.00 | 91 | 1011.5 |
| 20260905111304 | 75 | 79 | 2.6 | 4.3 | 0.00 | 0.00 | 0.00 | 92 | 1011.5 |
| 20260905110804 | 75 | 103 | 2.6 | 5.2 | 0.00 | 0.00 | 0.00 | 92 | 1011.5 |
| 20260905110303 | 75 | 101 | 3.5 | 5.2 | 0.00 | 0.00 | 0.00 | 92 | 1011.1 |
| 20260905105804 | 75 | 86 | 4.3 | 5.2 | 0.00 | 0.00 | 0.00 | 91 | 1011.1 |
| 20260905105306 | 75 | 118 | 1.7 | 4.3 | 0.00 | 0.00 | 0.00 | 91 | 1011.1 |
| 20260905104804 | 75 | 356 | 0.9 | 5.2 | 0.00 | 0.00 | 0.00 | 91 | 1011.1 |
| 20260905104304 | 75 | 114 | 1.7 | 7.0 | 0.00 | 0.00 | 0.00 | 92 | 1010.8 |
| 20260905103804 | 75 | 33 | 3.5 | 7.0 | 0.00 | 0.00 | 0.00 | 92 | 1011.1 |
| 20260905103304 | 76 | 27 | 2.6 | 2.6 | 0.00 | 0.00 | 0.00 | 91 | 1011.1 |
| 20260905102804 | 76 | 28 | 0.0 | 5.2 | 0.00 | 0.00 | 0.00 | 91 | 1010.8 |
| 20260905102306 | 76 | 114 | 0.0 | 5.2 | 0.00 | 0.00 | 0.00 | 92 | 1010.8 |
| 20260905101804 | 76 | 160 | 1.7 | 3.5 | 0.00 | 0.00 | 0.00 | 91 | 1010.8 |
| 20260905101304 | 76 | 271 | 0.0 | 4.3 | 0.00 | 0.00 | 0.00 | 91 | 1010.8 |
| 20260905100803 | 76 | 246 | 2.6 | 4.3 | 0.00 | 0.00 | 0.00 | 92 | 1010.8 |
| 20260905100303 | 76 | 207 | 3.5 | 4.3 | 0.00 | 0.00 | 0.00 | 92 | 1010.8 |
| 20260905095804 | 76 | 195 | 3.5 | 4.3 | 0.00 | 0.00 | 0.00 | 92 | 1010.8 |
| 20260905095306 | 76 | 40 | 0.0 | 4.3 | 0.00 | 0.00 | 0.00 | 92 | 1010.4 |
| 20260905094804 | 76 | 18 | 1.7 | 5.2 | 0.00 | 0.00 | 0.00 | 92 | 1010.8 |
| 20260905094303 | 76 | 206 | 1.7 | 8.7 | 0.00 | 0.00 | 0.00 | 92 | 1010.8 |
| 20260905093803 | 76 | 224 | 3.5 | 8.7 | 0.00 | 0.00 | 0.00 | 92 | 1010.4 |
| 20260905093305 | 76 | 212 | 3.5 | 5.2 | 0.00 | 0.00 | 0.00 | 91 | 1010.8 |
| 20260905092804 | 76 | 219 | 2.6 | 4.3 | 0.00 | 0.00 | 0.00 | 90 | 1010.8 |
| 20260905092306 | 77 | 207 | 2.6 | 3.5 | 0.00 | 0.00 | 0.00 | 88 | 1010.4 |
| 20260905091803 | 77 | 204 | 2.6 | 3.5 | 0.00 | 0.00 | 0.00 | 87 | 1010.4 |
| 20260905091304 | 77 | 193 | 1.7 | 3.5 | 0.00 | 0.00 | 0.00 | 86 | 1010.4 |
| 20260905090804 | 77 | 158 | 2.6 | 3.5 | 0.00 | 0.00 | 0.00 | 85 | 1010.4 |
| 20260905090303 | 77 | 201 | 1.7 | 2.6 | 0.00 | 0.00 | 0.00 | 84 | 1010.4 |
| 20260905085804 | 77 | 205 | 0.9 | 4.3 | 0.00 | 0.00 | 0.00 | 84 | 1010.4 |
| 20260905085305 | 77 | 188 | 2.6 | 4.3 | 0.00 | 0.00 | 0.00 | 83 | 1010.4 |
| 20260905084804 | 77 | 148 | 1.7 | 3.5 | 0.00 | 0.00 | 0.00 | 84 | 1010.1 |
| 20260905084304 | 77 | 134 | 2.6 | 2.6 | 0.00 | 0.00 | 0.00 | 84 | 1010.4 |
| 20260905083804 | 77 | 157 | 0.9 | 3.5 | 0.00 | 0.00 | 0.00 | 84 | 1010.1 |
| 20260905083303 | 77 | 132 | 1.7 | 3.5 | 0.00 | 0.00 | 0.00 | 83 | 1010.4 |
| 20260905082803 | 77 | 108 | 1.7 | 3.5 | 0.00 | 0.00 | 0.00 | 84 | 1010.4 |
| 20260905082307 | 77 | 89 | 2.6 | 3.5 | 0.00 | 0.00 | 0.00 | 84 | 1010.4 |
| 20260905081804 | 77 | 78 | 1.7 | 2.6 | 0.00 | 0.00 | 0.00 | 83 | 1010.4 |
| 20260905081304 | 77 | 95 | 0.9 | 4.3 | 0.00 | 0.00 | 0.00 | 84 | 1010.4 |
| 20260905080803 | 76 | 94 | 2.6 | 6.1 | 0.00 | 0.00 | 0.00 | 85 | 1010.4 |
| 20260905080303 | 76 | 81 | 2.6 | 7.8 | 0.00 | 0.00 | 0.00 | 86 | 1010.4 |
| 20260905075804 | 76 | 65 | 5.2 | 7.8 | 0.00 | 0.00 | 0.00 | 86 | 1010.4 |
| 20260905075306 | 76 | 62 | 7.0 | 7.8 | 0.00 | 0.00 | 0.00 | 86 | 1010.4 |
| 20260905074804 | 77 | 40 | 6.1 | 6.1 | 0.00 | 0.00 | 0.00 | 85 | 1010.1 |
| 20260905074303 | 77 | 60 | 4.3 | 5.2 | 0.00 | 0.00 | 0.00 | 83 | 1010.4 |
| 20260905073804 | 77 | 72 | 4.3 | 4.3 | 0.00 | 0.00 | 0.00 | 83 | 1010.4 |
| 20260905073303 | 78 | 71 | 2.6 | 3.5 | 0.00 | 0.00 | 0.00 | 82 | 1010.4 |
| 20260905072803 | 78 | 104 | 0.9 | 2.6 | 0.00 | 0.00 | 0.00 | 82 | 1010.4 |
| 20260905072306 | 78 | 109 | 1.7 | 3.5 | 0.00 | 0.00 | 0.00 | 83 | 1010.1 |
| 20260905071804 | 77 | 83 | 1.7 | 4.3 | 0.00 | 0.00 | 0.00 | 83 | 1010.4 |
| 20260905071304 | 78 | 85 | 2.6 | 4.3 | 0.00 | 0.00 | 0.00 | 83 | 1010.4 |
| 20260905070804 | 78 | 68 | 2.6 | 4.3 | 0.00 | 0.00 | 0.00 | 82 | 1010.4 |
| 20260905070303 | 78 | 95 | 2.6 | 4.3 | 0.00 | 0.00 | 0.00 | 82 | 1010.8 |
| 20260905065804 | 78 | 110 | 1.7 | 4.3 | 0.00 | 0.00 | 0.00 | 82 | 1010.4 |
| 20260905065306 | 78 | 69 | 2.6 | 4.3 | 0.00 | 0.00 | 0.00 | 82 | 1010.8 |
| 20260905064803 | 78 | 74 | 3.5 | 4.3 | 0.00 | 0.00 | 0.00 | 81 | 1010.8 |